Вернуться в каталог

ION SCV-012

АктивенНаукаSSO
NORAD 60573·PAYLOAD·🇮🇹 Italy

Запущен Aug 16, 2024 с Vandenberg Space Force Base

Loading…

Ближайшие Пролёты (ближайшие 24 часа)

TLE

СвежийSource: Space-Track

Эпоха: Sep 13, 2026, 22:03 UTC

1 60573U 24149DK  26256.91887080  .00000379  00000-0  39715-4 0  9991
2 60573  97.6705 329.0457 0004241 129.9434 230.2160 14.95087828113179

Отслеживайте ION SCV-012 в реальном времени с AllMySat

Download on the App Store